This demonstration page uses our WeatherBlox Daily Observations layout. Learn more.

Left ArrowRight Arrow

31.84235, -102.49876

Hourly Observations for March 7, 2017

Temp ( °F °C ) Dew Point ( °F °C ) Humidity (%) Winds ( mph kmh ) Pressure ( in mb ) Visibility ( mi km ) Precip ( " mm )
12:53 am 00:53 Clear 59 15 24 -4.4 26 26 NW 9 15 29.88 1012 10 16 0.00 0.00
1:53 am 01:53 Clear 59 15 21 -6.1 23 23 VRB 5 7 29.91 1013 10 16 0.00 0.00
2:53 am 02:53 Clear 54 12.2 20 -6.7 26 26 E 7 11 29.96 1015 10 16 0.00 0.00
3:53 am 03:53 Clear 52 11.1 20 -6.7 28 28 NE 10 17 29.98 1015 10 16 0.00 0.00
4:53 am 04:53 Clear 50 10 17 -8.3 27 27 ENE 6 9 30.02 1017 10 16 0.00 0.00
5:53 am 05:53 Clear 47 8.3 17 -8.3 30 30 NNE 8 13 30.06 1018 10 16 0.00 0.00
6:49 am 06:49 Mostly Cloudy 43 6 18 -8 36 36 NE 9 15 30.24 1024 10 16 0.00 0.00
6:53 am 06:53 Mostly Cloudy 43 6.1 17 -8.3 35 35 NE 9 15 30.11 1020 10 16 0.00 0.00
7:29 am 07:29 Cloudy with Haze 46 7.8 13 -10.6 26 26 ENE 16 26 30.21 1023 3 4 0.00 0.00
7:53 am 07:53 Cloudy with Haze 47 8.3 11 -11.7 23 23 ENE 18 30 30.16 1021 2 3 0.00 0.00
8:53 am 08:53 Cloudy with Haze 49 9.4 8 -13.3 19 19 ENE 17 28 30.21 1023 2 3 0.00 0.00
9:32 am 09:32 Cloudy with Haze 51 10.6 3 -16.1 14 14 E 23 37 30.30 1026 3 5 0.00 0.00
9:53 am 09:53 Cloudy with Haze 52 11.1 4 -15.6 14 14 ENE 22 35 30.22 1024 3 5 0.00 0.00
10:53 am 10:53 Cloudy with Haze 55 12.8 5 -15 13 13 ENE 17 28 30.23 1024 4 6 0.00 0.00
11:53 am 11:53 Cloudy with Haze 58 14.4 4 -15.6 11 11 ENE 16 26 30.24 1024 4 6 0.00 0.00
12:53 pm 12:53 Cloudy with Haze 60 15.6 6 -14.4 11 11 E 15 24 30.22 1024 5 8 0.00 0.00
1:53 pm 13:53 Mostly Cloudy with Haze 63 17.2 8 -13.3 11 11 E 12 19 30.20 1023 6 10 0.00 0.00
2:03 pm 14:03 Partly Cloudy 64 17.8 8 -13.3 11 11 E 12 19 30.18 1022 7 11 0.00 0.00
2:53 pm 14:53 Sunny 65 18.3 9 -12.8 11 11 E 9 15 30.18 1022 8 13 0.00 0.00
3:53 pm 15:53 Sunny 66 18.9 10 -12.2 11 11 S 6 9 30.16 1021 9 14 0.00 0.00
4:53 pm 16:53 Sunny 66 18.9 10 -12.2 11 11 ENE 7 11 30.16 1021 10 16 0.00 0.00
5:53 pm 17:53 Sunny 66 18.9 11 -11.7 11 11 E 7 11 30.16 1021 10 16 0.00 0.00
6:53 pm 18:53 Clear 60 15.6 12 -11.1 15 15 ESE 9 15 30.18 1022 10 16 0.00 0.00
7:53 pm 19:53 Clear 56 13.3 14 -10 19 19 ESE 9 15 30.19 1023 10 16 0.00 0.00
8:53 pm 20:53 Clear 54 12.2 15 -9.4 21 21 ESE 9 15 30.20 1023 10 16 0.00 0.00
9:53 pm 21:53 Clear 53 11.7 16 -8.9 23 23 ESE 9 15 30.22 1023 10 16 0.00 0.00
10:53 pm 22:53 Clear 53 11.7 16 -8.9 23 23 SE 12 19 30.22 1023 10 16 0.00 0.00
11:53 pm 23:53 Clear 52 11.1 17 -8.3 25 25 SSE 10 17 30.21 1023 10 16 0.00 0.00

Powered by AerisWeather